Volver al catálogo

ORBCOMM FM 116

ActivoComunicacionesLEO
NORAD 41189·PAYLOAD·🇺🇸 United States

Lanzado Dec 22, 2015 desde Cape Canaveral Space Force Station

Loading…

Próximos Pases (próximas 24 horas)

TLE

ActualizadoSource: Space-Track

Época: Sep 14, 2026, 14:31 UTC

1 41189U 15081L   26257.60509260  .00000331  00000-0  10604-3 0  9999
2 41189  47.0014 207.8050 0000478 105.5799 254.5140 14.58958505571990

Sigue ORBCOMM FM 116 en tiempo real con AllMySat

Download on the App Store